Tracking 33203 objects as of 15-Feb-2026
HD Live streaming from Space Station
objects crossing your sky now

STARLINK-31699

Track STARLINK-31699 now!
10-day predictions
STARLINK-31699 is classified as:


NORAD ID: 59551
Int'l Code: 2024-074T
Perigee: 488.3 km
Apogee: 492.1 km
Inclination: 43.0 °
Period: 94.3 minutes
Semi major axis: 6861 km
RCS: Unknown
Launch date: April 18, 2024
Source: United States (US)
Launch site: AIR FORCE EASTERN TEST RANGE (AFETR)
Your satellite tracking list
Your tracking list is empty




NASA's NSSDC Master Catalog

Two Line Element Set (TLE):
1 59551U 24074T   26046.18282683 -.00000518  00000-0 -92880-5 0  9996
2 59551  43.0019 110.5016 0002812 285.4783  74.5758 15.27570319102579
Source of the keplerian elements: AFSPC